FENGYUN 1C DEB

Satellite information

Favourite Embed

Satellite Type and Status

DEBRISIN ORBIT

Key statistics

Satellite FENGYUN 1C DEB at a glance.

Uptime

9714

Days in orbit

Revolutions

≈ 14.3

Per day

Orbit

SSO

Sun Synchronous Orbit

Inclination

99.4

Latest

Satellite identification and parameters

Extended collection of information and parameters for FENGYUN 1C DEB.

Object identification

Identified? True

Debris? True

Object name: FENGYUN 1C DEB

International designator: 1999-025CMZ

Object number (NORAD): 31948

Object ID (CCSDS): 31948

Country: PEOPLES REPUBLIC OF CHINA (PRC)

Current information (Y/N): Y

RCS size: SMALL

Orbital parameters

Period: 100.823 minutes

Inclination: 99.3918 deg

SMA: 7175.729 km

Apoapsis: 814.659 km

Periapsis: 780.529 km

RAAN: 42.5089 deg

Eccentricy: 0.00237817

Argument of periapsis: 35.7447 deg

Mean anomaly: 26.9919 deg

Mean motion: 14.28248279 rev/day

Mean motion (dot): 0.00005441 rev/day2

B* drag term: 0.0021945448 1/REarth

Two-line elements (TLE)

Creation date: Dec. 8, 2025, 6:20 p.m.

Reference frame: TEME

Reference center: EARTH

Epoch: Dec. 8, 2025, 9:44 a.m. UTC

TLE line 0: 0 FENGYUN 1C DEB

TLE line 1: 1 31948U 99025CMZ 25342.40570810 .00005441 00000-0 21945-2 0 9998

TLE line 2: 2 31948 99.3918 42.5089 0023782 35.7447 26.9919 14.28248279949663

Live tracking on map

Real-time ground track for satellite FENGYUN 1C DEB.

In-orbit conjunctions

A list of the most updated potential collisions computed for object FENGYUN 1C DEB.

Target Orbit TCA Probability of collision Miss distance Type
COSMOS 676 LEO 2025-09-21 15:49:09 0.000188278 745.0 (m) PAYLOAD
COSMOS 2251 DEB LEO 2024-11-13 04:11:15 0.0001524587 639.0 (m) DEBRIS

Associated space launch

Chinese polar orbiting meteorological satellite

FENGYUN 1C DEB was lifted into orbit during the mission ‘Long March 4B | Feng Yun 1C’, on board a Long March 4B space rocket.

The launch took place on May 10, 1999, 1:33 a.m. from Launch Complex 7.

For more information about the launch, click the button.

Launch to space Long March 4B | Feng Yun 1C
Long March 4B | Feng Yun 1C

Agency: N/A

Status: Launch Successful

Launch date: May 10, 1999, 1:33 a.m. UTC

Rocket: Long March 4B

Launch pad: Launch Complex 7

Location: Taiyuan Satellite Launch Center, People's Republic of China

...

Latest news about this satellite

There are no fresh news available about this satellite. Check back as we update our databases every day.


Newsletter sign-up

Weekly statistics, charts and insights to help you stay on top of the space industry.